Regional Weather Roundup
Issued by NWS

Home | Current Version | Previous Version | Graphics & Text | Print | Product List | Glossary On
Versions: 1 2 3 4 5 6 7 8 9 10 11 12 13 14 15 16 17 18 19 20 21 22 23 24 25 26 27 28 29 30 31 32 33 34 35 36 37 38 39 40 41 42 43 44 45 46 47 48 49 50
000
ASUS45 KCYS 301710
RWRWY

WYOMING REGIONAL WEATHER ROUNDUP
NATIONAL WEATHER SERVICE CHEYENNE WY
1100 AM MDT WED JUL 30 2014

NOTE:  "FAIR" INDICATES FEW OR NO CLOUDS BELOW 12,000 FEET
WITH NO SIGNIFICANT WEATHER AND/OR OBSTRUCTIONS TO VISIBILITY.

WYZ001-301800-
YELLOWSTONE NATIONAL PARK

CITY           SKY/WX    TMP DP  RH WIND       PRES   REMARKS
LK YELLOWSTONE   N/A     64  39  39 E3        30.49S
W YELLOWSTONE  NOT AVBL

$$
WYZ002>013-054>058-071-098>099-301800-
NORTHERN WYOMING

CITY           SKY/WX    TMP DP  RH WIND       PRES   REMARKS
JACKSON        SUNNY     66  46  48 N8        30.37
CODY           NOT AVBL
GREYBULL       FAIR      72  55  55 CALM      30.27F
WORLAND        FAIR      70  57  63 CALM      30.29F
SHERIDAN       FAIR      79  45  29 NE5       30.27F
BUFFALO        FAIR      78  37  22 VRB7      30.32F
GILLETTE       FAIR      76  47  35 NE6       30.27F
HULETT         FAIR      72  54  53 MISG      30.28
NEWCASTLE      FAIR      72  52  49 SW3       30.28

$$
WYZ014>020-022>026-101>103-301800-
CENTRAL WYOMING

CITY           SKY/WX    TMP DP  RH WIND       PRES   REMARKS
BIG PINEY      LGT RAIN  56  52  86 NW9       30.43R
PINEDALE       LGT RAIN  55  50  82 W10       30.41S
DUBOIS         FAIR      63  39  42 E12G20    30.44S
LANDER         FAIR      65  56  72 N3        30.36S
RIVERTON       FAIR      68  52  56 N5        30.36F
CASPER         FAIR      65  51  60 SE3       30.34F
DOUGLAS        FAIR      69  55  60 W5        30.34R

$$
WYZ021-027>030-104>119-301800-
SOUTHERN WYOMING

CITY           SKY/WX    TMP DP  RH WIND       PRES   REMARKS
EVANSTON       LGT RAIN  56  54  93 NE9       30.38S FOG
KEMMERER       LGT RAIN  54  52  94 E17G23    30.47R
FORT BRIDGER   CLOUDY    56  56 100 NE14      30.41S
ROCK SPRINGS   CLOUDY    61  51  70 E17       30.37S
DIXON          CLOUDY    63  55  73 CALM      30.33F
RAWLINS        CLOUDY    60  54  80 NE12      30.38S
SARATOGA       CLOUDY    59  52  77 CALM      30.37F
LARAMIE        LGT RAIN  55  53  93 E7        30.41S
CHEYENNE       LGT RAIN  57  54  89 NE5       30.38R
TORRINGTON     FAIR      69  58  67 NW3       30.28S
PINE BLUFFS    CLOUDY    64  55  72 NE5       30.33S

$$


USA.gov is the U.S. government's official web portal to all federal, state and local government web resources and services.